Temperature
20 21 20 20 20 20 20 19 19 19 19 19 19 19 19 19 19 19 19 19 19 19 19 19 19 19 19 19 19 19 18 18 18 18 18 18 18 18 18 18 18 18 18
21 21 20 20 20 20 20 19 19 19 19 19 19 19 19 19 19 19 19 19 19 19 19 19 18 18 18 18 18 18 18 18 18 18 18 18 18 18 18 18 18 18 18
21 20 20 20 20 20 19 19 19 19 19 19 19 19 19 19 19 19 19 19 19 19 19 19 18 18 18 18 18 18 18 18 18 18 18 18 18 18 18 18 18 18 18
21 20 20 20 20 20 19 19 19 19 19 19 19 19 19 19 19 19 19 19 19 19 19 18 18 18 18 18 18 18 18 18 18 18 17 17 18 18 18 18 18 18 17
21 21 20 20 20 20 19 19 19 19 19 19 19 19 19 19 19 19 19 18 19 19 19 18 18 18 18 18 18 18 18 18 18 18 18 18 18 18 18 18 18 18 17
21 20 20 20 20 20 20 20 19 19 19 19 19 19 19 19 19 19 18 19 19 19 19 18 18 18 18 18 18 18 18 18 18 18 18 18 18 18 18 18 18 18 17
21 21 21 20 20 20 20 20 20 19 19 19 19 19 19 19 19 19 19 19 19 19 19 18 19 19 18 18 18 19 18 18 18 18 18 18 18 18 18 18 17 17 17
21 21 21 20 20 20 20 20 20 20 19 19 19 19 19 19 19 19 19 19 19 19 19 19 19 19 18 19 19 19 18 18 18 18 18 18 18 18 18 18 18 17 17
22 21 21 20 20 20 20 20 20 20 19 19 19 19 19 19 19 19 19 19 19 19 19 19 19 19 19 19 19 19 19 18 18 18 18 18 18 18 18 18 18 17 17
22 21 21 20 20 20 20 20 20 20 19 19 19 19 19 19 19 19 19 19 19 19 19 19 19 19 19 19 19 19 18 18 18 18 18 18 18 18 18 17 17 17 17
21 21 21 20 20 20 20 20 20 20 20 19 19 19 19 19 19 19 19 19 19 19 19 19 18 18 19 19 19 19 18 18 18 18 18 18 18 18 17 17 17 17 17
21 21 20 20 20 20 20 20 20 20 19 19 19 19 19 19 19 19 19 19 19 19 19 19 18 18 18 18 18 18 18 18 18 18 18 18 18 18 17 17 17 17 17
21 21 20 20 20 20 20 20 20 20 19 19 19 19 19 19 19 19 19 18 19 19 18 18 18 18 18 18 18 18 18 18 18 18 18 18 18 18 18 17 17 17 17
21 20 20 20 19 20 20 20 20 20 19 19 19 19 19 19 19 19 18 18 18 18 18 18 18 18 18 18 18 18 18 18 18 18 18 18 18 18 17 17 17 17 17
20 20 20 19 19 19 20 20 20 20 20 19 19 19 19 19 19 19 19 18 18 18 18 18 18 18 18 18 18 18 18 18 18 18 18 18 18 17 17 17 17 17 17
20 20 20 19 19 19 19 19 19 19 19 19 19 19 19 19 19 19 19 19 19 18 18 18 18 18 18 18 18 18 18 18 18 18 18 18 18 17 17 17 17 17 17
20 20 20 19 19 19 19 19 19 19 19 19 19 19 19 19 19 19 19 19 19 18 18 18 18 18 18 18 18 18 18 18 18 18 18 18 18 17 17 17 17 17 17
20 20 20 19 19 19 19 19 19 19 19 19 19 19 19 19 19 19 19 19 19 19 18 18 18 18 18 18 18 18 18 18 18 18 18 17 17 17 17 17 17 17 17
20 20 19 19 19 19 19 19 19 19 19 19 19 19 19 19 19 19 19 18 18 18 18 18 18 18 18 18 18 18 18 18 18 18 18 17 17 17 17 17 17 17 17
20 20 20 19 19 19 19 19 19 19 19 19 19 19 19 19 19 19 18 18 18 18 18 18 18 18 18 18 18 18 18 18 18 18 18 18 17 17 17 17 17 17 17
20 20 20 19 19 19 19 19 19 19 19 19 19 19 19 18 18 18 18 18 18 18 18 18 18 18 18 18 18 18 18 18 18 18 18 18 18 17 17 17 17 17 17
20 20 20 19 19 19 19 19 19 19 19 19 19 19 19 18 18 18 18 18 18 18 18 18 18 18 18 18 18 18 18 18 18 18 18 18 18 18 17 17 17 17 17
21 20 20 20 19 19 19 19 19 19 19 19 19 19 18 18 18 19 18 18 18 18 18 18 18 18 18 18 18 18 18 18 18 18 18 18 18 18 17 17 17 17 17
21 21 20 20 20 19 19 19 19 19 19 19 19 19 19 18 18 18 18 18 18 18 18 18 18 18 18 18 19 19 19 19 18 18 18 18 18 17 17 17 17 17 17
22 21 20 20 20 20 20 19 19 19 19 19 19 19 19 19 18 18 18 18 18 18 18 18 18 18 18 18 18 19 19 19 19 18 18 18 18 18 17 17 17 17 17
22 21 21 20 20 20 20 19 19 19 19 19 19 19 19 19 19 18 18 18 18 18 18 18 18 18 18 18 18 18 18 18 18 18 18 18 18 18 17 17 17 17 17
Wind_Speed
11 12 12 11 11 11 11 10 10 10 10 10 10 10 10 10 10 10 11 12 12 13 13 12 11 11 11 11 11 11 11 12 12 12 12 11 12 12 12 12 12 12 15
13 13 13 12 11 11 11 10 10 10 10 10 10 10 10 10 10 10 11 11 12 12 13 12 11 10 10 11 11 11 11 11 11 11 11 11 10 11 11 11 10 11 15
14 13 13 13 12 11 10 10 11 10 10 10 11 11 11 11 10 10 11 11 12 12 12 11 10 10 10 10 11 10 10 10 10 10 9 9 10 11 11 12 13 14 14
13 13 13 14 12 11 10 10 11 10 10 10 11 11 10 10 10 11 11 11 11 11 11 11 10 9 9 10 10 9 9 9 9 8 7 8 9 11 11 11 13 13 13
12 14 15 14 13 11 10 9 10 10 10 10 11 11 10 10 10 10 10 11 11 11 11 11 10 9 9 9 9 8 8 7 6 6 6 8 10 12 12 13 13 13 12
13 15 15 14 13 11 10 9 9 10 10 10 10 10 10 10 10 10 10 10 11 11 10 10 10 9 9 8 8 8 7 6 5 6 8 10 11 12 13 13 12 12 12
12 15 15 14 13 12 10 9 8 8 9 9 9 9 10 10 10 10 9 9 10 10 9 9 9 9 8 8 7 6 6 5 5 6 8 10 11 13 13 12 12 12 12
12 14 15 15 13 12 10 9 8 7 7 8 8 8 8 9 9 9 8 9 9 9 9 9 8 8 7 7 6 5 5 3 4 7 9 10 13 14 12 12 12 11 11
10 12 12 13 12 12 10 10 8 7 7 7 7 7 7 8 9 8 8 9 9 8 8 7 7 7 7 6 6 5 5 3 1 6 9 10 13 13 12 12 11 11 11
9 9 9 10 10 10 10 10 9 7 7 7 7 7 7 8 9 9 9 8 8 7 7 6 6 6 6 5 5 5 4 4 3 6 8 10 13 13 12 11 11 11 10
8 7 7 8 7 6 8 10 10 9 7 7 7 7 7 7 7 8 8 8 8 7 7 6 5 6 5 6 6 4 4 3 5 7 8 12 13 13 12 10 10 10 10
7 7 6 6 5 4 5 6 6 6 7 6 6 7 5 4 5 7 10 10 8 7 6 6 5 5 5 4 6 6 3 3 6 7 9 14 13 13 12 11 10 10 10
7 7 7 7 5 4 3 3 2 3 5 5 5 5 5 4 4 6 6 7 7 7 5 6 6 4 4 3 3 4 4 3 5 7 11 14 13 12 12 10 10 9 10
7 7 7 6 4 4 3 1 1 2 3 4 5 4 4 2 2 2 2 4 5 4 4 3 3 3 2 2 2 1 1 3 6 8 10 13 13 12 11 10 9 9 10
6 6 7 6 4 3 2 1 1 2 3 4 4 4 3 2 2 2 2 2 1 3 3 2 2 2 2 1 1 1 2 3 6 8 9 12 12 11 10 9 9 8 8
6 6 6 6 4 3 1 1 1 2 3 3 3 4 3 2 2 2 2 1 1 1 3 2 2 2 2 1 1 2 3 4 5 7 9 10 11 11 10 9 9 9 8
6 5 4 5 4 3 2 1 1 1 2 3 4 4 3 3 1 1 2 1 1 2 2 2 2 2 3 2 2 2 3 3 3 5 7 8 9 10 10 9 8 8 8
5 4 2 4 5 3 1 1 1 2 2 3 4 4 3 2 1 1 1 1 1 1 1 2 2 2 2 2 2 2 2 2 3 3 5 6 8 8 9 9 9 8 8
5 4 3 4 4 2 2 1 1 1 2 2 3 3 3 2 2 1 1 2 1 1 1 2 3 2 2 1 2 3 2 2 2 3 4 5 7 8 8 9 10 9 9
6 4 4 3 3 2 2 0 0 1 1 2 3 2 3 2 2 1 1 2 1 1 2 2 2 1 1 0 1 2 2 2 2 2 2 4 6 7 8 9 10 9 9
6 5 4 3 3 1 1 1 1 1 1 2 3 3 3 2 3 2 1 2 1 1 2 1 1 1 1 1 2 1 1 2 2 2 2 2 4 5 7 8 9 9 9
7 5 4 3 3 2 1 1 1 1 1 2 2 4 4 2 2 3 1 1 1 1 1 1 1 0 1 1 1 1 1 0 0 2 3 3 3 4 4 6 7 8 10
7 6 5 4 3 2 1 1 1 1 0 2 3 3 2 2 2 2 2 1 0 1 2 1 1 1 1 1 1 1 1 1 0 1 2 2 3 3 3 4 6 7 9
8 8 6 5 4 3 2 1 1 2 1 1 2 2 2 3 2 2 2 1 0 1 1 1 1 1 1 1 1 1 0 2 1 1 1 2 3 2 2 3 4 6 7
9 8 8 6 5 3 3 2 2 1 1 1 2 3 2 2 3 2 2 1 1 1 1 0 1 1 1 1 1 1 0 1 2 2 2 2 2 2 2 2 3 5 8
8 8 8 7 6 4 4 3 3 2 1 1 1 2 2 2 2 2 3 2 2 1 1 1 1 1 1 1 2 2 1 1 1 1 2 2 2 2 2 2 3 4 6
Wind_Direction
99 104 103 101 102 101 98 94 90 94 96 96 93 90 89 87 86 88 96 103 106 110 113 116 117 118 117 117 115 113 114 117 116 116 116 118 123 128 133 138 140 128 128
106 109 106 103 101 101 99 93 91 95 95 95 93 91 89 89 87 87 97 105 109 111 113 114 115 117 119 121 121 120 120 123 125 126 126 124 127 132 135 139 131 128 132
107 113 111 105 99 98 98 95 94 93 92 94 94 92 88 88 88 90 100 105 109 114 116 117 118 119 121 124 128 127 128 133 135 138 144 134 127 129 132 132 130 128 132
110 112 111 111 105 103 99 97 97 94 91 93 94 95 91 90 90 92 100 106 110 113 117 120 123 125 126 128 131 134 139 147 151 158 157 137 131 129 130 132 132 131 134
106 111 114 117 116 113 108 102 100 97 94 95 97 97 95 94 95 95 102 110 113 113 116 120 125 125 130 134 136 141 148 158 168 156 138 126 122 129 128 133 134 135 138
116 116 120 124 123 121 118 111 106 106 105 104 102 99 96 94 98 96 99 108 115 115 117 121 126 126 132 140 145 153 160 174 184 152 135 128 127 134 134 136 139 142 143
113 116 120 128 128 127 125 119 113 112 114 114 111 107 103 100 100 100 101 106 114 120 122 125 128 130 135 143 151 163 175 190 187 135 122 120 130 138 138 140 141 145 147
112 117 124 133 134 132 131 127 124 122 122 123 121 115 113 110 105 106 109 112 114 118 124 129 130 132 139 146 157 173 185 197 157 125 120 121 135 141 143 143 145 148 150
103 117 130 137 138 138 136 133 134 138 136 137 136 130 127 125 117 118 120 121 122 125 128 131 135 142 144 155 170 187 194 205 197 129 127 129 141 144 145 143 146 149 151
90 103 119 130 132 141 145 145 149 150 144 150 154 147 143 139 137 135 132 132 133 134 137 140 144 154 158 167 183 201 215 221 180 122 121 134 142 143 143 146 149 151 152
81 84 95 107 123 131 137 144 159 160 152 153 156 155 154 155 148 148 139 142 143 144 147 154 159 160 167 181 196 216 236 224 129 114 121 137 143 144 146 148 152 159 159
87 80 74 76 83 90 109 135 149 147 149 153 148 151 155 141 133 133 147 153 156 160 160 168 173 174 185 186 194 204 220 189 124 123 133 142 147 152 152 154 157 162 166
90 83 81 69 63 64 76 122 125 135 145 145 135 135 128 127 136 136 148 159 164 170 175 165 176 190 187 181 165 183 198 149 116 118 136 147 153 157 156 158 163 166 170
89 85 79 75 60 46 42 58 125 133 144 129 136 139 134 136 131 137 149 153 164 167 161 157 164 173 156 135 140 170 124 121 113 115 139 149 156 160 162 164 168 171 174
92 89 90 89 79 70 40 338 90 99 109 111 121 121 128 124 120 123 127 130 144 147 143 142 157 146 122 117 151 118 125 108 118 126 139 155 159 160 162 166 172 174 175
97 87 93 97 86 78 61 359 22 82 100 102 105 103 107 105 90 119 120 108 111 132 133 134 138 124 124 112 108 94 80 93 115 131 141 156 162 164 167 169 173 176 178
104 94 103 113 99 79 56 2 89 90 92 100 100 97 99 105 98 100 110 132 135 141 131 132 117 127 137 137 128 110 93 92 119 134 144 151 160 169 172 170 174 179 178
106 99 95 105 110 115 97 11 34 52 78 97 111 114 119 107 110 82 107 119 117 142 142 141 135 130 117 124 123 117 109 116 131 136 147 151 157 162 172 177 179 181 181
112 113 104 86 107 118 111 122 113 85 73 95 111 121 129 119 96 76 66 75 106 86 69 99 101 112 120 133 136 135 147 155 146 147 144 149 153 150 157 173 179 179 180
123 119 119 106 97 108 112 79 26 108 121 121 120 127 123 127 110 90 103 87 78 75 64 62 79 96 117 157 132 125 147 153 158 153 154 140 146 155 163 170 172 176 179
133 129 124 123 110 93 84 130 160 142 159 130 124 129 125 125 120 117 86 111 116 99 99 93 92 132 145 157 111 110 130 158 159 151 156 155 149 152 158 162 165 165 166
139 138 141 140 129 126 128 230 189 143 165 130 112 117 120 128 129 135 122 132 130 127 110 112 120 146 211 153 151 168 146 123 166 164 162 160 155 144 146 150 159 163 161
154 155 159 147 146 147 165 192 160 154 141 93 116 122 127 134 132 108 114 102 41 112 126 149 156 215 252 220 181 188 168 157 171 153 163 153 142 140 149 148 152 151 158
162 160 151 148 151 157 187 207 177 147 141 139 131 135 147 151 144 136 137 130 106 69 126 203 152 273 258 248 255 265 124 128 153 154 167 149 155 155 166 168 142 140 147
167 164 157 151 158 167 191 195 199 161 177 128 120 142 151 153 159 157 157 147 142 177 151 102 46 321 295 300 300 301 297 194 198 186 177 164 168 168 171 173 143 141 148
166 161 160 156 165 175 189 192 190 191 190 167 144 157 161 149 149 146 156 158 176 182 180 201 231 256 271 309 308 300 283 235 174 175 173 173 172 176 165 161 150 144 149
Height
1498 1498 1498 1498 1498 1499 1499 1500 1500 1501 1502 1502 1503 1504 1504 1504 1504 1505 1505 1505 1506 1507 1508 1511 1514 1516 1518 1520 1521 1523 1524 1525 1526 1527 1528 1528 1529 1531 1533 1535 1537 1539 1541
1499 1499 1500 1500 1500 1501 1501 1502 1502 1503 1503 1504 1504 1505 1505 1506 1506 1506 1506 1507 1508 1509 1511 1513 1515 1517 1519 1521 1522 1524 1525 1526 1527 1528 1529 1530 1531 1532 1533 1535 1537 1539 1541
1500 1501 1501 1501 1502 1503 1503 1504 1504 1505 1505 1505 1506 1507 1507 1507 1508 1507 1508 1509 1510 1511 1513 1515 1517 1518 1520 1522 1523 1525 1526 1527 1528 1529 1530 1531 1532 1532 1533 1535 1537 1540 1542
1502 1502 1503 1503 1504 1504 1505 1506 1506 1507 1507 1507 1508 1508 1509 1509 1509 1509 1510 1511 1512 1513 1514 1516 1518 1520 1521 1523 1524 1526 1527 1528 1529 1530 1532 1532 1533 1533 1533 1533 1537 1540 1542
1503 1504 1504 1505 1506 1506 1507 1508 1509 1509 1509 1509 1510 1510 1510 1510 1510 1511 1512 1512 1514 1515 1516 1517 1519 1521 1522 1524 1526 1527 1528 1529 1531 1532 1533 1533 1534 1534 1534 1535 1538 1541 1543
1505 1505 1506 1506 1507 1508 1509 1510 1511 1511 1511 1511 1512 1512 1512 1512 1512 1513 1514 1514 1516 1517 1518 1519 1520 1522 1523 1525 1527 1528 1529 1531 1532 1533 1534 1534 1535 1536 1537 1538 1540 1542 1544
1506 1506 1507 1508 1509 1510 1511 1512 1512 1513 1513 1513 1514 1514 1514 1514 1515 1515 1516 1517 1517 1518 1519 1520 1521 1523 1524 1526 1527 1529 1530 1532 1533 1534 1535 1535 1537 1538 1539 1540 1542 1543 1545
1507 1508 1509 1510 1511 1512 1512 1513 1514 1514 1515 1515 1516 1516 1516 1516 1517 1518 1518 1519 1519 1520 1521 1522 1523 1524 1525 1527 1529 1530 1532 1533 1534 1536 1536 1536 1537 1538 1540 1541 1543 1544 1546
1510 1510 1510 1512 1512 1513 1514 1515 1515 1516 1517 1517 1518 1518 1518 1518 1519 1520 1520 1521 1521 1522 1523 1524 1525 1526 1527 1529 1530 1532 1533 1534 1535 1536 1537 1537 1538 1539 1540 1542 1543 1545 1547
1512 1513 1513 1513 1514 1515 1515 1516 1517 1517 1518 1518 1519 1520 1520 1520 1521 1521 1522 1522 1523 1524 1524 1525 1526 1527 1528 1530 1532 1533 1534 1535 1536 1537 1537 1538 1539 1540 1541 1542 1544 1545 1547
1514 1515 1515 1516 1516 1517 1517 1518 1518 1519 1519 1520 1521 1521 1522 1522 1522 1523 1523 1524 1525 1525 1526 1527 1528 1529 1530 1531 1533 1534 1535 1535 1536 1537 1538 1538 1539 1540 1541 1542 1544 1545 1547
1516 1516 1517 1517 1518 1519 1519 1519 1520 1521 1521 1521 1522 1522 1523 1523 1524 1525 1525 1525 1526 1527 1527 1528 1529 1530 1531 1532 1534 1535 1535 1536 1537 1537 1538 1539 1539 1540 1541 1543 1544 1545 1547
1517 1518 1518 1518 1519 1519 1520 1520 1521 1522 1522 1522 1523 1523 1524 1524 1525 1525 1526 1526 1527 1528 1529 1529 1530 1531 1532 1534 1534 1535 1536 1537 1537 1537 1538 1539 1540 1540 1541 1543 1544 1545 1546
1518 1519 1519 1519 1519 1519 1520 1521 1522 1523 1523 1524 1523 1524 1524 1525 1526 1526 1527 1527 1528 1529 1530 1530 1531 1532 1533 1534 1535 1536 1536 1536 1537 1537 1538 1539 1539 1540 1541 1542 1544 1545 1546
1519 1520 1520 1519 1519 1520 1520 1521 1522 1523 1524 1524 1525 1525 1525 1526 1526 1527 1527 1528 1528 1529 1530 1531 1532 1533 1533 1534 1535 1535 1536 1537 1537 1537 1538 1539 1539 1540 1541 1542 1543 1544 1545
1520 1520 1520 1520 1520 1520 1520 1521 1522 1524 1524 1525 1525 1525 1526 1526 1527 1527 1528 1528 1529 1530 1531 1531 1532 1533 1533 1534 1535 1535 1536 1537 1537 1538 1538 1539 1539 1540 1541 1542 1543 1544 1545
1520 1520 1521 1521 1520 1521 1521 1522 1523 1524 1525 1525 1525 1525 1526 1527 1527 1528 1528 1529 1530 1530 1531 1532 1532 1533 1534 1534 1535 1536 1536 1537 1537 1538 1538 1539 1539 1540 1541 1542 1542 1543 1544
1521 1521 1521 1521 1521 1521 1522 1522 1523 1524 1524 1525 1525 1525 1526 1527 1528 1528 1528 1529 1530 1530 1531 1532 1532 1533 1534 1534 1535 1536 1536 1537 1537 1538 1539 1538 1539 1539 1540 1541 1542 1543 1544
1520 1521 1521 1521 1521 1522 1522 1523 1523 1523 1524 1525 1525 1526 1526 1527 1527 1528 1529 1529 1530 1531 1531 1532 1533 1533 1534 1535 1535 1536 1536 1537 1537 1538 1539 1539 1539 1540 1540 1541 1541 1542 1543
1521 1521 1521 1521 1521 1522 1522 1523 1523 1524 1524 1525 1525 1525 1526 1526 1527 1528 1528 1529 1530 1531 1532 1532 1532 1533 1534 1535 1536 1536 1536 1537 1538 1538 1539 1540 1540 1540 1540 1540 1541 1541 1542
1521 1521 1521 1521 1521 1521 1522 1522 1523 1524 1525 1525 1525 1525 1526 1526 1527 1528 1528 1529 1530 1531 1531 1532 1532 1533 1534 1535 1536 1536 1537 1538 1538 1538 1539 1539 1540 1540 1540 1540 1540 1541 1541
1521 1521 1521 1521 1521 1521 1522 1523 1523 1524 1525 1525 1525 1525 1526 1526 1527 1528 1528 1529 1530 1531 1531 1532 1533 1533 1534 1535 1536 1536 1537 1539 1538 1539 1539 1539 1540 1540 1539 1540 1540 1540 1541
1520 1520 1521 1521 1521 1521 1522 1523 1524 1524 1525 1525 1525 1526 1526 1527 1527 1528 1528 1529 1530 1530 1531 1532 1533 1533 1534 1535 1535 1536 1537 1537 1538 1539 1539 1539 1539 1540 1540 1539 1539 1540 1540
1519 1520 1520 1520 1521 1521 1522 1523 1523 1524 1524 1525 1525 1526 1526 1527 1527 1528 1528 1529 1529 1530 1531 1531 1532 1533 1534 1534 1535 1535 1536 1536 1537 1538 1539 1538 1538 1539 1539 1539 1539 1539 1539
1518 1519 1520 1520 1520 1521 1522 1522 1523 1524 1524 1525 1526 1526 1526 1526 1527 1527 1528 1529 1529 1530 1530 1531 1531 1532 1533 1534 1534 1535 1535 1536 1536 1536 1537 1538 1538 1538 1538 1538 1538 1538 1538
1517 1518 1519 1519 1520 1521 1521 1522 1522 1523 1524 1525 1525 1525 1526 1526 1526 1527 1528 1528 1528 1529 1530 1530 1531 1531 1532 1533 1533 1534 1534 1535 1535 1535 1535 1536 1537 1537 1538 1538 1537 1537 1537